Location: Newark
(41.7772°N, 74.7403°W)
Time: 05:42:45
(UTC+00:00)

Altair - All Passes

Search period start: 06 June 2020 00:00
Search period end: 16 June 2020 00:00
Orbit: 1501 x 1683 km, 47.2° (Epoch: 05 June)

Date Brightness Start Highest point End Pass type
(mag) Time Alt. Az. Time Alt. Az. Time Alt. Az.
06 Jun - 00:12:30 10° SSW 00:21:31 45° SE 00:30:49 10° ENE daylight
06 Jun - 02:15:59 10° WSW 02:25:54 83° NNW 02:36:08 10° ENE visible
06 Jun - 04:21:39 10° W 04:31:38 65° N 04:41:46 10° E visible
06 Jun - 06:27:03 10° WNW 06:37:17 89° NNE 06:47:28 10° ESE visible
06 Jun - 08:32:24 10° WNW 08:41:32 40° SW 08:50:34 10° SSE visible
06 Jun - 23:47:36 10° SSW 23:56:24 41° SE 00:05:31 10° ENE daylight
07 Jun - 01:50:47 10° WSW 02:00:40 86° NNW 02:10:53 10° ENE visible
07 Jun - 03:56:22 10° W 04:06:20 64° N 04:16:28 10° E visible
07 Jun - 06:01:49 10° WNW 06:12:02 85° NNE 06:22:14 10° ESE visible
07 Jun - 08:07:06 10° WNW 08:16:25 43° SW 08:25:39 10° SSE visible
07 Jun - 23:22:43 10° SSW 23:31:19 38° SE 23:40:11 10° ENE daylight
08 Jun - 01:25:36 10° WSW 01:35:27 90° NNW 01:45:38 10° ENE visible
08 Jun - 03:31:06 10° W 03:41:02 65° N 03:51:11 10° E visible
08 Jun - 05:36:36 10° WNW 05:46:48 82° NNE 05:57:00 10° ESE visible
08 Jun - 07:41:49 10° WNW 07:51:18 46° SW 08:00:42 10° SSE visible
08 Jun - 09:51:44 10° WSW 09:54:10 11° WSW 09:56:36 10° SW daylight
08 Jun - 22:57:54 10° SSW 23:06:14 35° SE 23:14:50 10° ENE daylight
09 Jun - 01:00:26 10° WSW 01:10:13 87° SSE 01:20:23 10° ENE visible
09 Jun - 03:05:50 10° W 03:15:44 65° N 03:25:53 10° ENE visible
09 Jun - 05:11:23 10° WNW 05:21:32 80° NNE 05:31:45 10° ESE visible
09 Jun - 07:16:32 10° WNW 07:26:09 50° SW 07:35:43 10° SSE visible
09 Jun - 09:25:10 10° W 09:29:09 13° WSW 09:33:07 10° SW daylight
09 Jun - 22:33:06 10° S 22:41:10 32° SE 22:49:29 10° ENE daylight
10 Jun - 00:35:17 10° WSW 00:45:01 83° SSE 00:55:08 10° ENE daylight
10 Jun - 02:40:35 10° W 02:50:27 65° N 03:00:35 10° ENE visible
10 Jun - 04:46:09 10° WNW 04:56:17 77° NNE 05:06:29 10° ESE visible
10 Jun - 06:51:17 10° WNW 07:01:01 54° SW 07:10:42 10° SSE visible
10 Jun - 08:59:07 10° W 09:04:07 15° WSW 09:09:07 10° SSW daylight
10 Jun - 22:08:21 10° S 22:16:06 29° SE 22:24:05 10° ENE daylight
11 Jun - 00:10:10 10° SW 00:19:50 79° SSE 00:29:53 10° ENE daylight
11 Jun - 02:15:19 10° W 02:25:09 66° N 02:35:17 10° ENE visible
11 Jun - 04:20:55 10° WNW 04:31:01 75° NNE 04:41:14 10° ESE visible
11 Jun - 06:26:02 10° WNW 06:35:51 58° SW 06:45:40 10° SE visible
11 Jun - 08:33:18 10° W 08:39:05 17° WSW 08:44:52 10° SSW visible
11 Jun - 21:43:38 10° S 21:51:03 26° SE 21:58:39 10° ENE daylight
11 Jun - 23:45:03 10° SW 23:54:39 75° SSE 00:04:39 10° ENE daylight
12 Jun - 01:50:04 10° W 01:59:52 67° N 02:10:00 10° ENE visible
12 Jun - 03:55:41 10° WNW 04:05:44 73° NNE 04:15:57 10° E visible
12 Jun - 06:00:47 10° WNW 06:10:41 61° SW 06:20:36 10° SE visible
12 Jun - 08:07:36 10° W 08:14:03 19° SW 08:20:27 10° SSW visible
12 Jun - 21:18:59 10° S 21:26:00 24° SE 21:33:11 10° E daylight
12 Jun - 23:19:57 10° SW 23:29:28 71° SE 23:39:24 10° ENE daylight
13 Jun - 01:24:49 10° W 01:34:35 68° N 01:44:43 10° ENE visible
13 Jun - 03:30:28 10° WNW 03:40:28 71° NNE 03:50:39 10° E visible
13 Jun - 05:35:33 10° WNW 05:45:31 65° SW 05:55:30 10° SE visible
13 Jun - 07:42:01 10° W 07:48:59 21° SW 07:55:56 10° S visible
13 Jun - 20:54:25 10° S 21:00:58 21° SE 21:07:40 10° E daylight
13 Jun - 22:54:53 10° SW 23:04:19 67° SE 23:14:09 10° ENE daylight
14 Jun - 00:59:35 10° W 01:09:19 70° NNW 01:19:26 10° ENE visible
14 Jun - 03:05:14 10° WNW 03:15:11 69° NNE 03:25:21 10° E visible
14 Jun - 05:10:20 10° WNW 05:20:20 69° SW 05:30:24 10° SE visible
14 Jun - 07:16:30 10° W 07:23:56 24° SW 07:31:20 10° S visible
14 Jun - 20:29:56 10° SSE 20:35:57 19° SE 20:42:05 10° E daylight
14 Jun - 22:29:50 10° SW 22:39:10 63° SE 22:48:53 10° ENE daylight
15 Jun - 00:34:20 10° W 00:44:03 71° NNW 00:54:09 10° ENE daylight
15 Jun - 02:40:00 10° WNW 02:49:54 68° N 03:00:03 10° E visible
15 Jun - 04:45:07 10° WNW 04:55:08 73° SSW 05:05:15 10° SE visible
15 Jun - 06:51:03 10° WNW 06:58:52 26° SW 07:06:40 10° S visible
15 Jun - 20:05:33 10° SSE 20:10:56 17° ESE 20:16:24 10° E daylight
15 Jun - 22:04:49 10° SW 22:14:02 59° SE 22:23:38 10° ENE daylight
